When you browse on this site, cookies collect data to enhance your experience and personalize the content and advertising you see.
Visit our Privacy Policy to learn more. By continuing to use the site, you agree to this use of cookies and data.
  • In Czech Republic
  • List of Countries
  • For 7 days
  • Water Temperature
  • Weather Map
  • Weather Widgets
  • user-avatar
    Login

    Hourly Weather Sydney

    Today, 30 May, Saturday

    Time Temperature Precipitation Wind Pressure Humidity
    00:00 +14°C° 0 mm 1 mps 769 mmHg 88%
    01:00 +14°C° 0 mm 1 mps 769 mmHg 88%
    02:00 +14°C° 0 mm 1 mps 769 mmHg 88%
    03:00 +14°C° 0 mm 1 mps 769 mmHg 88%
    04:00 +14°C° 0 mm 1 mps 769 mmHg 88%
    05:00 +14°C° 0 mm 1 mps 769 mmHg 88%
    06:00 +14°C° 0 mm 1 mps 770 mmHg 88%
    07:00 +13°C° 0 mm 1 mps 770 mmHg 88%
    08:00 +15°C° 0 mm 1 mps 770 mmHg 81%
    09:00 +16°C° 0 mm 1 mps 769 mmHg 74%
    10:00 +20°C° 0 mm 1 mps 769 mmHg 66%
    11:00 +20°C° 0 mm 1 mps 769 mmHg 60%
    12:00 +20°C° 0 mm 2 mps 768 mmHg 55%
    13:00 +21°C° 0 mm 2 mps 767 mmHg 49%
    14:00 +20°C° 0 mm 3 mps 767 mmHg 54%
    15:00 +20°C° 0 mm 4 mps 767 mmHg 59%
    16:00 +19°C° 0 mm 5 mps 766 mmHg 63%
    17:00 +17°C° 0 mm 5 mps 766 mmHg 69%
    18:00 +17°C° 0 mm 4 mps 766 mmHg 74%
    19:00 +15°C° 0 mm 4 mps 766 mmHg 79%
    20:00 +15°C° 0 mm 4 mps 766 mmHg 82%
    21:00 +14°C° 0 mm 4 mps 766 mmHg 86%
    22:00 +14°C° 0 mm 4 mps 766 mmHg 89%
    23:00 +13°C° 0 mm 4 mps 766 mmHg 90%

    Tomorrow, 31 May, Sunday

    Time Temperature Precipitation Wind Pressure Humidity
    00:00 +13°C° 0 mm 4 mps 765 mmHg 91%
    01:00 +12°C° 0 mm 4 mps 765 mmHg 92%
    02:00 +12°C° 0 mm 3 mps 764 mmHg 92%
    03:00 +12°C° 0 mm 3 mps 764 mmHg 92%
    04:00 +12°C° 0 mm 3 mps 764 mmHg 92%
    05:00 +11°C° 0 mm 3 mps 764 mmHg 91%
    06:00 +11°C° 0 mm 3 mps 764 mmHg 89%
    07:00 +11°C° 0 mm 3 mps 763 mmHg 87%
    08:00 +13°C° 0 mm 3 mps 763 mmHg 79%
    09:00 +16°C° 0 mm 3 mps 763 mmHg 72%
    10:00 +17°C° 0 mm 4 mps 763 mmHg 65%
    11:00 +19°C° 0 mm 4 mps 763 mmHg 57%
    12:00 +21°C° 0 mm 4 mps 762 mmHg 50%
    13:00 +22°C° 0 mm 4 mps 761 mmHg 43%
    14:00 +22°C° 0 mm 3 mps 761 mmHg 43%
    15:00 +21°C° 0 mm 2 mps 761 mmHg 43%
    16:00 +21°C° 0 mm 2 mps 761 mmHg 44%
    17:00 +19°C° 0 mm 2 mps 761 mmHg 46%
    18:00 +18°C° 0 mm 3 mps 761 mmHg 49%
    19:00 +16°C° 0 mm 3 mps 761 mmHg 52%
    20:00 +16°C° 0 mm 3 mps 761 mmHg 55%
    21:00 +14°C° 0 mm 3 mps 761 mmHg 58%
    22:00 +14°C° 0 mm 4 mps 761 mmHg 61%
    23:00 +13°C° 0 mm 4 mps 760 mmHg 62%

    Day after tomorrow, 1 June, Monday

    Time Temperature Precipitation Wind Pressure Humidity
    00:00 +13°C° 0 mm 4 mps 759 mmHg 64%
    01:00 +13°C° 0 mm 4 mps 759 mmHg 65%
    02:00 +13°C° 0 mm 5 mps 758 mmHg 67%
    03:00 +13°C° 0 mm 5 mps 758 mmHg 68%
    04:00 +13°C° 0 mm 6 mps 757 mmHg 69%
    05:00 +13°C° 0 mm 6 mps 757 mmHg 68%
    06:00 +14°C° 0 mm 7 mps 757 mmHg 68%
    07:00 +13°C° 0 mm 8 mps 757 mmHg 68%
    08:00 +16°C° 0 mm 8 mps 756 mmHg 62%
    09:00 +17°C° 0 mm 8 mps 756 mmHg 56%
    10:00 +20°C° 0 mm 8 mps 756 mmHg 51%
    11:00 +20°C° 0.2 mm 8 mps 755 mmHg 48%
    12:00 +19°C° 0.2 mm 9 mps 754 mmHg 46%
    13:00 +19°C° 0.2 mm 9 mps 754 mmHg 44%
    14:00 +18°C° 0 mm 8 mps 754 mmHg 44%
    15:00 +17°C° 0 mm 8 mps 754 mmHg 45%
    16:00 +16°C° 0 mm 8 mps 755 mmHg 45%
    17:00 +15°C° 0 mm 7 mps 755 mmHg 49%
    18:00 +14°C° 0 mm 7 mps 756 mmHg 53%
    19:00 +11°C° 0 mm 6 mps 757 mmHg 58%
    20:00 +10°C° 0 mm 6 mps 757 mmHg 59%
    21:00 +10°C° 0 mm 6 mps 757 mmHg 60%
    22:00 +9°C° 0 mm 6 mps 758 mmHg 61%
    23:00 +9°C° 0 mm 6 mps 758 mmHg 62%

    2 June, Tuesday

    Time Temperature Precipitation Wind Pressure Humidity
    00:00 +8°C° 0 mm 6 mps 757 mmHg 62%
    01:00 +8°C° 0 mm 6 mps 757 mmHg 63%
    02:00 +9°C° 0.1 mm 6 mps 757 mmHg 64%
    03:00 +9°C° 0.1 mm 6 mps 757 mmHg 65%
    04:00 +9°C° 0.1 mm 6 mps 757 mmHg 67%
    05:00 +9°C° 1.5 mm 6 mps 757 mmHg 69%
    06:00 +9°C° 1.5 mm 6 mps 758 mmHg 72%
    07:00 +9°C° 1.5 mm 6 mps 758 mmHg 74%
    08:00 +11°C° 0.2 mm 7 mps 758 mmHg 67%
    09:00 +12°C° 0.2 mm 8 mps 759 mmHg 61%
    10:00 +15°C° 0.2 mm 8 mps 759 mmHg 54%
    11:00 +15°C° 0 mm 8 mps 759 mmHg 51%
    12:00 +16°C° 0 mm 8 mps 760 mmHg 47%
    13:00 +17°C° 0 mm 7 mps 760 mmHg 44%
    14:00 +17°C° 0 mm 7 mps 760 mmHg 46%
    15:00 +16°C° 0 mm 6 mps 761 mmHg 47%
    16:00 +16°C° 0 mm 6 mps 761 mmHg 49%
    17:00 +14°C° 0 mm 6 mps 762 mmHg 52%
    18:00 +13°C° 0 mm 6 mps 762 mmHg 55%
    19:00 +10°C° 0 mm 7 mps 763 mmHg 58%
    20:00 +10°C° 0 mm 7 mps 763 mmHg 60%
    21:00 +10°C° 0 mm 6 mps 763 mmHg 61%
    22:00 +10°C° 0 mm 6 mps 764 mmHg 62%
    23:00 +9°C° 0 mm 6 mps 764 mmHg 64%

    3 June, Wednesday

    Time Temperature Precipitation Wind Pressure Humidity
    00:00 +9°C° 0 mm 6 mps 764 mmHg 66%
    01:00 +9°C° 0 mm 6 mps 764 mmHg 68%
    02:00 +9°C° 0 mm 6 mps 764 mmHg 69%
    03:00 +9°C° 0 mm 6 mps 764 mmHg 69%
    04:00 +9°C° 0 mm 6 mps 764 mmHg 70%
    05:00 +8°C° 0 mm 5 mps 765 mmHg 72%
    06:00 +8°C° 0 mm 5 mps 765 mmHg 73%
    07:00 +8°C° 0 mm 4 mps 766 mmHg 75%
    08:00 +11°C° 0 mm 4 mps 767 mmHg 68%
    09:00 +13°C° 0 mm 4 mps 767 mmHg 60%
    10:00 +14°C° 0 mm 4 mps 767 mmHg 53%
    11:00 +15°C° 0 mm 5 mps 767 mmHg 49%
    12:00 +16°C° 0 mm 5 mps 767 mmHg 45%
    13:00 +17°C° 0 mm 6 mps 767 mmHg 41%
    14:00 +17°C° 0 mm 6 mps 767 mmHg 45%
    15:00 +16°C° 0 mm 6 mps 767 mmHg 49%
    16:00 +15°C° 0 mm 6 mps 768 mmHg 52%
    17:00 +14°C° 0 mm 6 mps 768 mmHg 57%
    18:00 +13°C° 0 mm 5 mps 769 mmHg 62%
    19:00 +12°C° 0 mm 5 mps 770 mmHg 67%
    20:00 +10°C° 0 mm 5 mps 770 mmHg 69%
    21:00 +10°C° 0 mm 5 mps 771 mmHg 71%
    22:00 +9°C° 0 mm 5 mps 771 mmHg 73%
    23:00 +9°C° 0 mm 5 mps 771 mmHg 73%

    4 June, Thursday

    Time Temperature Precipitation Wind Pressure Humidity
    00:00 +8°C° 0 mm 5 mps 771 mmHg 74%
    01:00 +8°C° 0 mm 5 mps 771 mmHg 74%
    02:00 +8°C° 0 mm 5 mps 771 mmHg 75%
    03:00 +8°C° 0 mm 5 mps 771 mmHg 76%
    04:00 +7°C° 0 mm 5 mps 771 mmHg 76%
    05:00 +7°C° 0 mm 5 mps 772 mmHg 78%
    06:00 +7°C° 0 mm 5 mps 772 mmHg 79%
    07:00 +7°C° 0 mm 5 mps 773 mmHg 80%
    08:00 +8°C° 0 mm 4 mps 773 mmHg 72%
    09:00 +11°C° 0 mm 4 mps 773 mmHg 64%
    10:00 +13°C° 0 mm 4 mps 773 mmHg 56%
    11:00 +14°C° 0 mm 4 mps 772 mmHg 52%
    12:00 +17°C° 0 mm 4 mps 772 mmHg 48%
    13:00 +18°C° 0 mm 4 mps 771 mmHg 44%
    14:00 +17°C° 0 mm 4 mps 771 mmHg 48%
    15:00 +17°C° 0 mm 4 mps 771 mmHg 53%
    16:00 +15°C° 0 mm 4 mps 771 mmHg 58%
    17:00 +14°C° 0 mm 4 mps 771 mmHg 63%
    18:00 +13°C° 0 mm 3 mps 772 mmHg 68%
    19:00 +12°C° 0 mm 3 mps 772 mmHg 74%
    20:00 +11°C° 0 mm 3 mps 772 mmHg 76%
    21:00 +10°C° 0 mm 3 mps 773 mmHg 78%
    22:00 +10°C° 0 mm 3 mps 773 mmHg 81%
    23:00 +9°C° 0 mm 3 mps 772 mmHg 81%
    Show more